Temp
19 20 20 20 20 20 20 20 20 20 20 21 21 21 21 21 21 21 22 22 22 22 23 23 22 23 23 23 23 24 24 24 24 22 22 23 24 24 24 24 25 24 23 23 23 23 23 23 23 23 23 23 21 21 22 22 22 23 23 22 22 21 22 23 24 24 23 24 25 25 24 24 25 25 25 24 25 25 25 25 25 24 23 24 25 25 24 23
20 20 20 20 20 20 20 20 20 20 20 21 21 21 21 21 21 21 21 22 22 22 22 22 22 22 23 23 23 23 24 24 24 23 23 23 24 24 24 24 24 24 23 23 24 23 23 23 22 22 22 23 21 21 22 21 22 23 22 21 22 22 23 23 23 23 23 24 24 24 23 23 24 24 24 25 25 24 24 25 24 24 24 23 24 25 24 23
19 20 20 21 21 21 21 21 20 21 21 21 21 21 21 21 21 21 21 21 21 21 21 22 22 22 22 23 23 23 23 23 24 24 24 24 24 24 24 24 24 24 23 24 23 23 23 23 22 22 22 23 22 21 22 22 22 22 21 22 23 23 23 23 23 23 23 23 23 24 23 23 24 24 24 24 24 24 24 24 24 24 25 24 23 23 23 21
19 19 20 20 21 21 21 21 21 21 21 20 20 21 21 21 21 21 21 21 21 21 21 21 22 22 22 22 23 23 23 23 24 25 25 25 25 24 24 24 24 24 23 23 23 23 23 23 22 22 23 23 21 21 22 22 22 21 21 23 23 22 23 24 25 24 23 23 23 24 23 23 24 23 24 24 24 24 24 24 24 24 25 25 24 22 22 19
17 18 19 20 20 20 20 21 21 20 20 20 20 20 21 21 21 21 21 21 21 21 21 21 21 22 22 22 22 23 23 23 25 25 25 25 25 24 24 24 24 24 23 23 23 23 23 22 22 22 23 23 22 22 22 22 22 22 22 23 23 22 22 25 25 24 23 23 23 23 23 24 23 23 23 23 23 24 24 25 24 24 24 24 23 22 21 19
15 16 17 18 19 19 20 20 20 19 19 19 19 20 20 20 20 20 20 21 21 21 21 21 21 21 21 22 22 22 23 24 25 25 25 25 25 24 24 24 24 23 23 23 23 23 23 22 22 23 22 22 22 22 23 21 21 22 22 22 23 22 22 24 24 23 23 22 23 23 23 22 23 23 23 23 23 24 25 24 24 24 23 22 22 21 21 22
14 15 16 17 17 18 19 19 19 18 18 19 19 19 19 19 19 19 20 20 20 21 21 21 21 21 21 21 21 21 21 23 25 25 24 24 24 24 24 24 23 23 23 22 23 23 23 23 23 23 22 22 22 22 22 22 22 22 22 22 23 22 22 23 23 23 22 22 22 22 22 22 23 22 22 23 24 24 24 23 22 21 21 21 21 21 21 21
14 15 16 17 17 18 18 18 18 18 18 18 18 18 18 18 19 19 19 19 20 20 20 20 20 20 21 21 21 21 20 22 24 24 24 24 24 24 23 23 23 23 22 22 22 22 22 23 23 22 22 22 22 22 22 22 22 21 22 22 22 22 22 22 22 22 22 22 22 22 22 22 22 22 21 23 24 24 23 22 21 21 21 21 22 22 21 20
14 15 16 17 18 18 17 17 17 17 18 18 18 18 18 18 18 18 19 19 19 19 20 19 19 20 20 20 20 21 22 23 24 23 23 23 23 23 23 23 23 23 22 22 22 22 22 23 23 22 22 22 21 22 22 22 22 21 22 21 22 22 22 22 22 23 22 22 22 22 23 22 22 21 22 23 24 24 23 23 23 22 22 23 22 20 18 18
12 14 16 17 18 17 16 16 17 17 17 17 17 17 17 17 18 18 18 18 19 19 19 19 19 19 19 19 19 21 22 23 23 22 22 22 23 23 22 23 22 22 22 21 21 21 22 22 22 21 22 22 21 21 21 22 21 21 21 21 22 21 21 21 22 22 21 21 22 21 22 22 21 22 22 24 25 23 22 23 23 22 22 22 20 16 14 14
12 13 15 17 17 16 15 16 16 16 16 16 17 17 17 17 17 18 18 18 19 19 19 19 19 19 18 18 20 21 22 22 22 22 22 22 22 22 22 22 22 22 22 21 21 21 22 22 21 21 22 22 21 21 21 21 21 21 21 22 22 21 21 22 22 22 21 22 22 21 23 22 21 21 23 25 25 23 22 23 23 21 21 20 17 14 12 12
12 13 15 16 16 15 15 15 15 16 16 16 16 17 17 17 17 18 18 18 18 18 19 18 19 18 18 18 19 21 21 21 21 21 21 22 21 21 21 22 21 21 21 21 20 21 21 22 22 22 22 21 21 21 21 20 21 21 21 21 22 21 22 23 22 21 21 22 22 22 22 23 22 22 25 25 23 22 22 23 22 21 21 19 15 13 12 11
12 14 15 15 15 15 15 15 15 16 16 16 16 16 17 17 17 17 17 18 18 18 18 18 18 17 18 19 20 21 21 21 21 21 21 21 21 21 21 21 21 20 21 21 20 21 21 21 22 22 21 21 21 21 21 20 21 21 20 21 21 20 22 23 22 21 21 21 21 22 21 22 24 24 25 23 21 21 22 23 22 21 20 16 13 12 11 10
13 14 14 14 14 14 15 15 15 15 16 16 16 16 17 17 17 17 17 18 18 18 18 18 18 17 17 20 21 20 20 20 20 20 20 20 20 20 20 20 20 20 20 20 20 21 21 22 22 21 20 21 21 21 20 20 21 21 20 20 20 19 21 23 22 21 23 21 21 23 21 22 25 25 25 23 20 20 23 23 21 20 18 14 12 11 10 10
13 14 14 14 14 14 15 15 15 15 15 16 16 16 16 16 16 16 17 17 18 18 17 17 16 16 17 19 21 20 20 19 19 19 19 19 20 20 19 19 19 20 20 20 20 21 21 22 22 21 21 20 20 21 20 20 20 20 20 20 19 19 21 23 22 21 23 22 20 22 21 21 23 24 25 24 21 20 22 22 21 20 16 13 12 11 10 10
13 13 14 14 14 14 15 14 15 15 15 15 16 16 16 16 16 16 17 17 17 17 16 16 15 16 18 20 20 19 19 19 19 19 19 19 20 20 19 19 19 19 20 20 20 20 21 21 20 20 20 20 20 20 19 19 19 19 19 20 19 19 19 21 22 22 22 22 21 22 21 21 23 23 25 24 22 22 22 21 20 18 14 12 11 10 10 9
13 13 14 14 14 14 14 14 14 15 15 16 16 16 16 16 15 15 16 16 16 15 15 15 15 16 19 20 20 20 19 19 19 19 19 19 19 20 19 19 18 19 19 19 20 20 20 20 19 19 19 19 19 19 19 19 19 19 18 19 19 19 19 19 22 22 21 22 22 21 21 21 22 23 23 23 22 21 21 21 20 16 12 11 11 10 9 8
13 14 14 14 14 14 14 14 14 15 15 16 16 16 16 16 15 15 15 15 15 15 15 15 15 18 20 19 19 20 19 19 19 18 19 19 19 19 20 18 17 18 19 19 19 19 19 19 18 19 19 18 18 19 19 19 20 20 19 19 19 19 19 19 20 21 22 22 21 21 20 21 22 21 21 22 20 20 21 21 19 14 12 11 10 9 9 8
13 14 14 14 14 14 14 14 14 14 15 15 16 16 16 15 15 15 14 15 16 18 18 17 17 20 21 20 19 18 18 18 18 18 18 18 19 19 19 19 18 19 19 19 19 19 19 19 18 19 19 18 19 19 20 21 21 20 20 19 19 19 19 19 20 21 21 20 21 21 20 20 21 21 21 21 19 20 21 21 18 13 11 10 10 9 8 8
13 13 13 13 13 14 14 14 14 14 14 15 15 16 16 16 17 17 14 14 16 18 19 19 19 20 20 20 18 17 18 18 18 18 18 18 19 19 19 18 18 19 19 19 19 18 18 19 18 19 20 20 20 19 19 20 19 19 19 18 18 18 18 19 20 21 20 20 21 20 19 20 20 21 21 20 20 20 18 18 15 12 11 10 9 9 8 8
12 13 13 13 13 13 14 14 14 14 14 14 14 15 16 17 18 18 16 16 16 16 17 18 18 19 20 19 18 18 19 19 17 17 17 18 18 19 19 18 18 18 18 18 18 17 18 18 19 20 20 20 19 18 18 18 18 18 18 18 18 17 18 19 19 20 19 19 20 19 19 20 20 20 20 19 19 16 14 15 13 11 10 9 9 8 8 7
12 12 13 13 13 13 14 14 14 14 14 14 14 15 15 15 16 16 16 17 16 15 15 16 16 17 18 19 19 19 20 19 18 17 17 18 18 19 19 18 18 18 17 17 17 17 17 17 19 19 19 18 18 18 18 18 18 18 18 17 18 17 18 19 19 19 19 19 20 19 19 20 20 20 17 16 15 12 11 12 11 10 10 9 8 8 7 7
12 12 13 13 13 14 14 13 13 13 13 14 14 15 15 15 15 15 15 16 16 16 16 16 16 16 17 18 19 19 19 19 19 18 17 17 18 18 18 18 18 18 17 17 18 17 17 18 19 18 17 17 18 18 17 17 18 18 18 17 18 18 18 19 19 18 19 19 19 19 19 19 20 19 16 13 12 11 10 10 9 9 8 8 8 7 7 7
12 12 13 13 13 14 13 13 13 13 14 14 14 15 15 15 15 15 15 15 16 16 16 16 16 17 17 17 18 18 18 18 19 18 17 18 18 17 18 18 18 17 17 17 18 18 18 19 19 18 17 17 18 18 17 17 18 18 18 18 18 18 18 19 18 18 19 18 17 18 19 19 19 19 16 15 13 11 11 10 9 8 8 7 7 6 6 6
13 13 13 14 14 14 13 12 13 14 14 14 14 15 15 15 15 15 15 15 16 16 16 16 16 17 18 17 18 18 18 18 18 16 16 17 18 17 18 18 17 18 17 16 17 17 18 18 18 18 18 17 18 19 18 18 18 18 18 19 19 19 19 18 17 18 18 18 17 17 18 18 19 19 18 16 14 12 11 10 9 8 8 7 7 6 6 6
12 12 13 13 13 13 12 12 13 14 14 14 14 15 15 15 15 15 15 15 16 17 17 17 17 17 17 17 17 18 18 18 16 15 16 17 17 18 18 18 18 18 17 16 16 17 18 18 18 19 18 18 18 18 18 18 18 18 18 18 18 18 18 18 17 18 18 18 17 17 18 17 18 20 19 16 14 12 10 9 8 8 7 7 6 6 6 6
12 13 13 13 13 13 12 13 14 14 14 14 15 15 15 15 14 14 16 16 16 18 18 16 16 17 17 16 16 18 18 17 15 15 16 16 17 17 17 17 18 18 18 17 17 17 18 18 17 18 18 18 17 18 18 17 18 18 17 17 18 18 18 18 18 18 17 16 16 16 17 16 16 18 18 16 15 13 10 9 8 7 7 6 6 6 6 5
13 13 13 13 13 13 13 13 14 13 14 15 15 14 14 14 14 15 17 17 18 19 18 16 16 16 16 15 16 17 17 16 17 16 15 16 16 17 17 17 17 18 18 17 18 17 17 18 18 18 18 18 18 19 18 17 19 18 16 16 17 17 17 17 17 17 16 15 16 16 16 16 16 17 16 16 16 14 11 9 8 7 7 6 6 6 6 5
12 13 13 13 13 13 13 13 13 14 15 14 14 14 14 14 14 16 16 17 19 20 18 17 16 16 16 16 16 17 15 15 17 15 14 16 16 16 17 17 17 18 17 16 18 18 17 17 17 18 18 18 19 17 16 18 19 17 15 15 17 16 16 16 16 16 15 14 16 17 16 16 17 17 16 16 17 15 11 9 8 7 7 7 6 6 6 5
12 12 13 13 13 12 12 12 13 14 14 14 14 14 14 14 15 16 15 16 19 19 17 17 16 16 16 16 16 16 16 16 15 15 15 16 16 16 16 15 16 17 16 16 17 17 16 15 15 17 18 18 17 14 13 16 16 16 16 17 18 16 16 15 14 15 16 15 16 17 16 17 17 18 17 16 16 15 12 9 8 7 7 6 6 6 6 5
12 12 12 12 13 13 12 12 13 14 14 14 14 14 14 15 15 16 16 17 18 18 17 17 16 16 16 16 16 16 16 16 15 15 16 15 15 16 15 16 16 17 16 17 17 16 16 16 16 17 16 16 17 15 13 14 14 16 17 18 18 17 16 15 15 15 15 17 17 15 14 15 17 18 17 14 13 13 12 10 8 7 7 6 6 6 6 5
13 12 12 12 12 13 12 13 14 14 14 14 14 14 15 15 14 15 16 17 18 18 17 17 15 16 16 16 17 16 16 16 15 16 16 15 15 15 16 17 17 17 16 17 17 16 16 17 16 16 16 16 18 17 15 14 15 16 17 17 17 16 16 16 16 15 15 16 15 14 14 15 16 16 12 9 9 10 11 11 8 7 6 6 6 6 5 5
12 12 12 12 12 12 12 13 14 13 13 13 13 14 14 14 15 15 16 18 18 18 17 17 16 16 16 16 17 16 16 16 15 15 15 15 15 15 16 16 16 17 17 16 16 17 17 17 15 16 17 17 18 18 17 16 16 16 17 17 16 15 15 16 15 14 15 16 14 13 15 16 17 15 8 6 7 6 8 8 7 6 6 6 6 5 5 5
12 12 12 12 12 12 12 12 13 13 13 13 13 14 14 14 15 15 16 17 17 17 17 17 16 16 16 17 17 16 16 17 15 16 16 15 15 16 16 16 15 17 18 16 16 17 17 17 17 17 17 17 17 17 18 17 15 15 15 16 16 16 16 16 16 16 16 17 15 14 16 17 17 13 7 6 6 5 6 6 5 6 5 5 5 5 6 5
11 11 11 11 11 11 12 12 12 12 12 12 13 14 14 15 15 15 16 17 17 17 17 16 16 17 16 16 16 16 17 17 15 16 16 15 16 16 17 17 16 16 17 16 16 16 16 17 17 15 15 16 16 16 16 17 16 14 13 15 16 17 17 17 16 16 16 16 15 15 16 14 12 10 7 7 7 6 6 5 5 6 5 6 6 6 6 6
10 10 10 10 11 11 11 12 12 12 12 12 13 14 14 16 16 16 16 17 17 17 16 16 16 16 16 16 16 16 17 17 16 16 16 15 16 16 17 18 17 16 17 17 17 16 16 17 16 14 14 15 15 15 15 17 17 15 13 16 15 14 17 17 15 14 14 15 14 15 15 12 11 10 8 7 7 6 6 6 6 7 6 6 7 7 7 6
9 9 9 10 10 11 11 12 12 11 12 13 13 14 15 16 16 16 16 17 17 17 17 16 17 17 16 16 16 16 17 17 16 16 16 15 16 16 17 17 16 16 17 18 18 17 17 17 16 15 16 15 12 14 15 14 15 15 15 16 15 13 15 16 15 14 13 14 14 14 15 14 14 13 9 7 8 7 6 7 7 7 7 7 8 7 7 6
9 9 9 10 10 11 11 11 11 11 11 13 14 14 15 15 16 16 16 16 16 17 17 16 17 17 16 16 16 16 16 16 16 16 16 16 17 17 17 17 16 15 16 17 17 17 16 17 16 14 15 14 12 14 16 14 14 15 15 16 15 15 16 15 14 14 13 13 14 15 15 14 15 14 11 10 9 8 7 7 7 7 8 8 8 8 7 6
9 10 10 10 10 10 10 11 10 10 12 13 14 14 14 15 15 15 16 16 16 16 16 16 16 16 16 16 16 16 16 16 15 15 16 16 16 17 17 17 16 15 15 17 17 16 16 16 16 13 13 14 14 15 16 15 14 14 14 14 14 15 16 15 14 14 14 13 13 14 15 15 15 14 13 12 9 8 8 8 8 9 9 9 9 8 7 6
10 11 10 9 10 10 10 10 10 11 12 13 14 14 13 14 14 15 15 16 16 15 15 15 15 16 15 15 16 16 16 15 15 15 16 16 16 17 16 15 16 15 15 16 16 16 15 15 15 14 13 13 15 15 16 16 15 14 15 14 14 14 14 14 13 13 14 14 13 13 13 15 14 12 12 12 8 8 9 8 9 9 9 9 9 8 7 6
10 11 10 9 9 9 9 10 10 11 12 12 13 13 13 13 14 14 15 15 15 14 14 15 15 15 15 15 15 15 15 15 15 15 15 16 16 16 15 14 15 15 15 16 16 15 15 15 15 14 14 14 15 14 14 15 15 15 15 15 15 15 14 13 13 13 14 13 13 13 13 15 13 10 11 10 8 9 9 9 10 10 9 9 8 7 6 5
10 11 10 8 9 9 9 10 11 11 11 12 12 12 13 13 13 14 14 14 14 14 14 14 14 14 15 15 15 14 14 15 15 14 15 15 16 16 14 12 13 15 15 15 15 14 14 14 14 14 14 13 13 11 11 12 13 14 14 13 14 14 14 13 13 13 13 12 12 12 12 13 11 9 9 9 9 9 8 10 12 10 9 9 8 7 5 5
10 10 8 8 8 9 10 10 10 10 11 11 11 12 12 12 12 13 13 13 14 13 13 13 13 14 14 15 14 13 14 14 14 14 14 14 15 13 12 11 12 14 15 14 14 13 13 14 14 14 13 12 12 11 11 11 12 13 13 12 12 13 13 13 12 12 12 12 12 12 12 12 11 9 9 9 8 9 8 9 11 10 9 8 7 6 6 5
9 8 8 8 8 9 9 10 10 10 10 10 11 11 12 12 12 12 13 13 13 13 13 13 13 14 14 14 14 14 13 13 13 13 13 14 14 11 10 11 12 14 14 14 14 15 14 14 13 13 13 12 12 12 12 12 12 13 12 11 11 11 11 11 11 11 10 11 12 11 11 12 11 9 9 9 9 9 8 7 8 9 10 9 7 6 6 5
8 8 8 8 8 8 9 10 10 10 10 10 10 10 11 11 12 12 12 13 13 13 13 13 13 14 13 13 13 13 13 14 14 13 12 13 12 10 10 10 11 12 13 12 13 15 14 13 13 13 12 12 12 12 11 12 12 11 11 10 10 11 11 10 10 10 10 11 11 11 11 12 10 9 10 10 9 9 9 8 7 8 9 9 7 6 5 5
9 9 8 8 8 8 9 9 10 10 10 9 10 10 10 10 11 12 12 12 13 13 13 13 13 13 13 12 12 12 12 13 13 13 12 12 11 10 9 9 10 11 11 10 12 13 12 11 12 13 13 12 13 12 10 11 12 12 11 11 10 10 10 10 10 9 10 10 10 10 11 11 10 10 10 9 9 10 9 9 8 8 8 8 6 5 5 5
9 9 9 8 8 8 8 9 9 9 10 10 10 10 10 10 10 11 11 12 12 12 12 13 12 12 12 12 12 12 12 12 12 12 12 11 10 9 8 9 9 10 10 10 11 11 12 11 11 11 12 12 11 11 10 10 11 12 11 11 11 9 9 9 9 9 10 10 9 10 10 9 10 11 10 9 10 9 9 9 9 8 8 7 5 4 5 5
8 9 9 9 9 9 8 8 8 9 9 10 10 10 10 10 10 10 11 11 12 12 12 12 12 12 12 12 12 12 12 11 11 12 11 10 9 9 9 9 9 9 9 10 10 11 12 11 10 10 10 10 9 9 9 9 10 10 10 11 11 9 8 8 8 9 9 9 9 10 10 9 10 10 9 9 9 9 9 9 8 7 6 5 4 4 5 5
7 7 7 8 8 9 9 9 9 8 9 9 10 10 10 10 10 10 11 11 11 11 12 11 11 12 12 12 12 12 12 11 11 11 11 10 9 9 9 10 9 8 9 10 10 10 11 10 9 9 10 10 8 8 8 8 9 9 9 9 9 8 8 7 8 8 8 8 9 9 9 8 9 9 9 9 9 8 8 7 6 6 6 5 5 5 5 5
6 6 7 7 7 7 8 9 9 8 9 9 9 10 10 10 10 11 11 11 11 11 11 11 11 12 12 11 11 12 12 12 12 12 11 10 10 9 9 10 9 8 8 10 9 9 10 10 8 8 9 9 7 7 8 8 8 8 8 8 7 7 7 7 7 7 7 7 8 8 7 7 9 9 8 8 8 7 7 6 6 6 5 5 5 5 5 5
5 5 6 6 7 7 8 8 9 8 8 9 9 10 10 10 11 11 11 11 11 11 11 11 12 11 11 11 11 11 12 12 12 12 11 10 10 9 9 10 9 8 9 9 8 9 9 8 7 8 9 8 6 7 8 7 7 7 7 7 6 6 7 7 7 7 7 7 7 6 6 6 8 8 7 7 7 6 6 6 6 5 5 5 5 6 5 5
4 5 5 5 6 7 7 8 8 8 9 9 9 9 10 10 11 11 11 9 9 9 9 10 11 10 10 10 10 10 10 9 9 8 7 8 8 8 8 9 8 9 9 8 8 8 8 8 8 8 8 7 5 6 7 7 6 6 7 7 7 7 7 7 7 7 7 7 6 6 6 7 8 7 7 7 7 6 6 5 5 5 5 5 5 5 6 6
Height
833 832 832 832 832 832 832 832 832 832 832 832 832 832 831 832 831 831 831 830 830 830 830 829 829 828 828 827 826 825 823 822 821 820 819 818 817 818 819 819 819 819 819 820 820 821 821 822 821 821 821 822 825 826 825 825 825 828 837 845 846 849 845 836 834 833 833 830 825 823 821 824 822 817 813 811 812 812 811 808 805 804 802 800 800 799 800 800
832 832 832 831 831 831 831 831 831 831 831 831 831 831 831 831 830 831 830 830 830 829 829 829 829 828 827 827 825 824 823 821 820 819 817 816 817 818 819 819 819 819 819 820 820 820 821 822 822 822 823 825 827 827 827 827 827 832 842 846 845 844 836 829 829 829 829 828 825 824 823 823 821 818 815 815 816 815 814 809 804 805 800 798 799 800 799 799
832 832 831 831 831 830 830 830 830 830 830 830 830 830 830 830 830 830 829 829 829 829 829 828 828 827 827 826 825 825 822 821 820 819 817 816 817 817 818 819 819 819 819 819 820 820 821 822 821 823 826 828 829 828 829 829 829 833 840 845 840 834 831 827 826 825 826 826 825 823 822 822 819 817 816 817 817 815 815 811 806 805 799 797 799 799 799 798
832 831 831 830 830 830 830 830 830 830 830 830 830 830 830 829 829 829 829 829 828 829 828 828 828 827 827 826 825 825 822 823 822 818 817 817 817 817 818 818 818 819 819 819 820 820 820 821 821 823 826 829 830 830 831 829 830 834 837 839 834 830 831 825 821 822 823 823 823 822 822 820 816 815 816 817 819 814 811 808 806 803 798 795 796 797 798 798
831 831 830 830 830 829 829 829 829 829 829 829 829 829 829 829 829 828 828 828 828 828 828 828 827 827 827 825 826 824 824 830 823 816 818 817 817 817 818 818 818 819 819 819 819 820 820 820 821 824 827 830 831 831 831 829 829 834 833 831 829 830 831 822 819 821 821 821 820 821 821 818 815 816 815 817 820 813 805 802 801 800 797 795 794 796 797 797
831 830 830 830 829 829 828 828 829 829 829 828 829 828 828 828 828 828 827 827 827 827 827 827 826 827 826 826 826 824 828 832 821 815 818 817 817 817 817 818 818 818 818 819 819 819 820 821 823 826 829 830 832 831 830 829 829 833 832 829 827 828 828 822 820 820 820 822 820 819 819 817 817 817 815 815 813 806 798 798 798 796 794 794 795 795 795 795
830 829 829 829 828 828 828 828 828 828 828 828 828 827 827 827 827 827 826 827 826 827 827 827 826 826 826 826 826 825 829 826 816 816 817 816 817 817 817 817 817 818 818 819 819 819 821 822 824 827 830 831 832 830 829 829 828 833 832 828 826 826 826 822 821 820 820 821 819 818 818 817 818 817 816 811 805 800 796 795 797 795 792 793 794 794 795 794
829 828 828 828 827 827 827 827 827 827 827 827 827 827 827 826 826 826 826 826 825 826 826 826 826 825 826 826 826 828 829 821 814 816 816 816 817 816 817 817 817 818 818 819 818 819 821 823 825 826 830 831 830 829 829 829 829 832 831 828 825 825 823 821 822 820 818 818 816 817 817 816 815 816 815 808 801 796 794 794 795 795 793 793 793 795 796 796
828 827 827 827 826 826 827 827 827 827 827 827 827 826 826 826 826 825 825 825 825 825 825 825 825 825 826 825 826 830 825 815 814 815 815 816 816 816 816 816 817 817 817 818 818 819 820 823 823 824 828 829 828 828 828 830 832 830 828 828 826 825 823 822 820 816 816 816 816 818 815 812 813 814 812 803 796 794 793 794 794 795 795 793 795 798 798 797
827 826 826 826 826 826 826 826 826 826 826 826 826 826 826 825 825 825 824 824 824 824 824 825 824 824 825 824 828 831 819 813 815 814 814 815 815 816 816 816 816 816 817 818 818 819 819 821 821 820 823 826 827 828 829 830 830 827 827 827 825 825 823 820 818 814 815 815 814 817 815 811 812 815 811 798 792 793 793 794 793 794 796 796 798 801 801 800
826 826 826 825 825 826 826 826 826 826 826 826 826 826 825 825 825 824 824 823 823 823 823 823 823 824 824 824 828 826 815 813 815 813 814 814 814 815 815 816 816 816 817 817 818 818 818 818 818 820 823 826 827 828 828 827 827 826 827 825 823 824 821 817 816 814 815 813 811 814 813 811 814 816 808 795 790 792 794 792 792 795 797 798 800 802 802 803
826 825 825 825 825 825 825 826 826 826 826 826 826 825 825 825 824 824 823 822 822 822 822 822 823 823 823 825 824 818 813 813 813 813 814 813 814 815 815 816 816 816 817 817 818 818 818 818 818 821 824 825 828 830 827 825 826 826 827 829 825 825 821 814 813 814 814 814 809 812 816 813 812 810 799 792 792 794 795 792 792 797 798 799 802 803 804 805
825 825 824 825 825 825 825 825 826 826 826 826 825 825 825 824 823 823 822 822 821 821 821 821 821 822 824 823 817 813 812 813 813 813 814 813 815 815 815 816 815 816 816 817 818 818 819 818 818 821 822 825 829 829 826 825 825 826 828 831 829 831 826 812 811 815 813 813 808 811 824 819 807 802 796 794 795 796 795 791 794 798 798 802 804 805 806 807
824 824 824 824 824 825 825 825 825 825 825 825 825 824 824 823 823 822 822 821 821 821 821 820 821 822 823 820 812 811 812 812 813 813 813 813 814 814 815 815 815 816 816 817 818 818 819 818 819 821 822 825 826 825 827 829 828 830 832 833 836 839 828 810 811 815 812 812 808 811 826 821 805 800 796 794 797 798 795 792 797 799 800 806 807 808 809 809
824 823 823 824 824 824 824 825 825 825 825 824 824 824 823 823 822 821 821 821 820 820 820 820 821 821 823 818 810 811 811 811 812 811 812 813 813 814 814 814 815 816 816 817 817 818 818 818 819 822 824 824 825 829 834 834 832 834 837 838 841 842 830 814 810 812 811 811 810 814 824 820 808 802 795 793 796 798 795 794 798 800 803 808 808 810 811 811
823 823 823 823 823 824 824 824 824 824 824 824 823 823 822 822 821 821 821 820 820 820 820 821 821 822 823 816 810 810 810 810 810 810 812 812 812 813 813 814 815 816 816 817 817 818 818 819 822 825 825 826 829 834 839 841 839 838 840 839 839 839 837 826 812 809 811 811 811 814 818 817 809 802 796 793 794 794 794 795 798 802 807 810 811 812 813 813
822 822 822 823 823 823 824 824 824 824 823 823 823 822 821 821 820 821 821 820 821 820 821 821 821 822 819 812 811 810 808 809 809 810 811 811 812 812 813 815 815 816 816 817 818 818 819 821 825 827 828 831 834 835 842 848 843 839 841 841 838 837 839 833 818 810 810 812 814 814 816 816 807 802 798 793 793 795 796 796 798 805 811 812 813 814 814 815
822 822 822 822 822 823 823 823 824 823 823 822 822 821 821 820 820 820 820 820 821 821 822 821 822 824 818 810 810 809 807 808 808 809 810 811 812 812 813 814 815 816 817 819 819 820 822 825 828 830 832 836 835 836 843 843 836 833 836 839 838 836 835 833 825 815 810 813 815 815 817 814 807 804 800 794 796 799 797 796 800 808 813 814 815 816 817 817
821 821 821 821 822 822 823 823 823 823 822 822 821 820 820 819 819 819 820 820 820 820 820 818 818 820 815 808 807 807 806 807 808 809 810 810 812 813 813 814 816 817 820 823 823 823 824 828 832 834 834 835 833 833 833 828 826 828 831 835 836 836 833 830 826 817 814 818 816 816 818 814 808 804 799 796 798 799 797 797 803 811 815 816 818 818 819 819
819 820 820 821 821 822 822 822 822 822 822 821 821 820 819 820 820 820 819 819 816 813 812 812 811 810 809 806 806 807 807 808 808 808 809 810 811 813 814 815 817 819 822 823 825 825 825 830 834 831 828 826 825 826 825 823 827 830 833 836 836 838 835 829 823 816 815 820 817 816 818 814 810 804 799 798 796 797 801 802 807 814 817 819 821 822 822 822
818 819 819 820 821 821 822 822 822 822 821 821 821 820 820 820 821 821 819 816 810 808 808 807 807 807 805 805 805 805 806 808 808 808 810 810 810 814 815 817 821 823 825 825 826 826 827 833 832 822 819 818 820 824 826 827 831 832 834 836 836 838 834 825 821 817 816 820 818 819 819 813 808 803 801 800 799 805 809 808 813 818 820 822 823 824 825 824
818 818 818 820 820 821 821 821 821 821 821 821 820 820 819 818 819 819 819 817 810 806 807 805 806 806 803 803 804 804 805 808 809 809 809 810 811 814 816 819 822 824 826 827 828 831 834 834 825 816 818 820 822 825 828 829 831 834 836 838 838 835 831 824 819 819 817 818 817 818 819 813 805 802 807 809 811 818 818 814 818 821 822 825 826 827 827 826
817 816 818 818 819 820 819 820 820 820 820 820 819 819 818 818 818 817 819 821 813 804 804 804 804 804 803 803 802 803 806 807 809 808 808 810 812 814 816 819 822 824 827 827 827 833 836 828 816 814 820 823 823 823 827 831 831 832 834 837 836 832 831 825 819 819 817 818 819 817 818 814 805 803 812 818 819 822 823 821 824 825 826 828 829 830 829 828
815 816 817 817 818 819 818 820 819 819 819 818 819 818 818 818 818 818 818 821 817 805 800 800 800 800 800 800 799 801 805 805 805 806 806 808 811 814 815 816 821 824 825 824 824 827 825 815 811 816 821 823 822 822 828 832 831 830 829 831 829 825 826 825 822 821 818 820 822 819 820 816 807 807 814 817 819 823 825 826 828 829 830 831 831 832 831 830
813 814 815 816 818 818 818 819 817 817 817 817 818 816 817 818 817 818 818 821 820 807 799 798 798 798 797 798 799 799 803 803 803 804 804 806 809 813 814 814 818 822 823 824 826 827 821 813 812 816 820 822 822 822 824 828 830 829 824 821 820 819 821 825 826 825 824 826 824 823 828 822 809 806 811 815 819 825 828 829 831 833 832 833 833 834 833 832
812 813 814 815 817 817 819 818 815 816 816 816 816 815 817 817 817 818 819 826 823 805 799 799 798 798 796 798 799 799 804 805 803 804 804 805 806 808 812 814 815 817 819 823 827 825 818 812 813 815 818 821 824 824 822 824 830 830 822 818 819 821 823 826 827 827 830 831 827 826 832 831 818 805 805 813 818 825 831 832 835 836 836 836 836 836 835 834
810 811 812 814 815 816 817 815 814 815 815 815 814 815 817 815 818 817 819 831 821 797 796 800 798 797 797 799 799 800 807 806 804 805 804 806 806 806 812 814 814 814 814 819 825 820 813 812 815 816 816 821 824 822 820 821 826 827 822 821 821 821 823 825 826 827 830 832 830 827 828 834 830 813 806 812 817 823 831 835 838 838 838 839 838 838 838 837
807 809 810 811 813 814 814 814 814 813 813 813 812 815 815 815 818 815 823 835 814 788 792 798 796 796 796 799 799 801 806 804 805 808 805 805 806 806 811 813 813 813 811 817 822 817 812 813 814 814 817 821 818 814 815 817 820 821 823 825 822 822 824 825 827 829 834 837 833 828 829 833 828 814 810 812 813 820 830 836 839 840 840 840 839 840 839 839
805 806 807 809 810 811 812 812 812 811 812 812 813 814 814 816 816 816 831 834 802 784 793 796 796 799 798 801 802 802 805 804 806 807 805 806 806 807 811 812 812 812 813 817 817 814 813 814 813 813 814 814 812 814 817 815 815 819 824 825 822 825 828 828 831 831 835 840 832 825 827 828 821 810 810 813 809 813 827 837 839 840 841 841 841 841 841 841
802 803 805 807 808 809 810 810 810 810 811 812 813 813 814 816 817 825 837 823 795 790 796 795 798 801 800 803 805 804 805 805 807 807 807 808 807 808 811 811 812 812 815 817 815 814 814 815 814 811 810 810 811 820 824 819 818 820 822 822 821 827 829 833 837 834 837 836 824 820 821 823 823 809 805 811 808 809 822 834 839 840 841 842 842 843 842 842
799 801 803 805 805 805 806 806 806 808 810 810 811 812 814 817 822 830 826 805 794 797 795 797 802 801 801 804 805 805 806 807 808 807 809 811 811 811 813 813 814 817 820 817 815 817 815 814 813 809 809 812 811 818 824 824 823 821 820 821 824 829 831 835 838 838 840 829 818 823 825 827 825 809 807 816 815 813 816 824 835 839 841 844 843 843 843 843
796 798 800 802 803 803 804 803 803 806 808 809 811 811 815 823 825 822 811 797 796 796 791 796 801 800 802 804 802 804 806 806 807 808 810 813 814 812 812 811 811 817 822 819 817 818 814 811 813 810 809 810 809 816 824 824 823 822 822 826 833 839 839 837 837 841 839 826 823 828 827 827 821 813 826 834 830 827 819 819 831 837 841 844 843 844 844 844
793 795 797 799 799 800 801 801 802 804 805 807 810 810 816 824 817 807 802 797 793 790 788 792 796 798 802 802 801 804 805 805 807 808 809 813 815 813 810 810 810 809 814 819 820 817 813 811 813 811 808 806 807 813 818 820 823 823 822 825 834 843 845 839 839 843 836 823 827 830 825 823 813 816 841 846 840 839 830 827 835 838 841 843 843 845 844 844
790 792 793 795 796 797 798 800 801 802 803 806 809 812 817 816 805 798 798 793 789 788 788 790 794 798 800 800 800 801 803 805 806 807 809 812 815 813 808 809 811 806 808 818 819 816 816 813 808 807 806 805 805 807 808 812 820 824 822 823 827 830 833 832 830 831 827 821 827 830 823 816 809 822 846 846 843 845 838 838 841 841 844 844 844 845 843 843
787 789 791 792 793 795 796 799 800 801 803 804 806 810 808 801 796 797 795 789 788 789 789 791 793 797 800 800 799 798 798 802 806 807 809 811 811 810 804 802 806 806 808 816 817 816 819 812 803 806 808 805 806 808 807 810 817 826 828 825 824 820 818 824 827 826 827 828 828 824 818 820 826 837 847 844 843 845 842 843 843 842 845 844 843 843 842 843
786 788 790 790 791 793 795 797 799 801 802 803 806 805 797 789 789 792 787 782 784 787 791 794 794 798 802 800 799 799 796 799 806 808 809 811 809 807 803 796 798 802 803 807 811 814 818 812 804 809 809 806 809 808 808 809 812 824 829 821 821 821 814 820 828 831 833 832 828 820 817 827 834 836 841 844 844 845 845 845 843 843 844 843 842 841 841 843
785 787 788 789 790 791 793 795 797 800 801 803 804 798 790 785 784 784 782 781 782 783 788 795 793 794 799 799 799 799 797 799 805 807 809 811 806 801 799 795 795 797 795 797 802 804 809 809 805 807 806 808 813 810 809 812 811 818 822 815 818 823 819 822 830 833 836 835 829 819 815 820 820 822 838 845 842 844 846 843 843 844 843 841 839 839 841 842
783 786 787 787 789 790 791 793 796 798 800 802 800 794 789 786 783 781 780 781 782 782 786 791 790 789 794 798 797 796 797 800 805 807 807 807 800 793 792 793 795 797 793 793 798 800 804 807 807 810 809 809 813 810 810 815 814 814 815 812 817 822 820 825 832 834 836 836 828 816 813 815 811 814 827 833 836 841 843 842 842 841 840 839 837 838 840 841
782 786 787 787 788 790 790 793 794 797 799 797 793 791 789 786 783 781 780 780 782 783 787 789 788 789 793 794 794 795 797 800 804 806 804 803 799 791 790 792 794 797 795 792 796 800 803 807 810 812 813 810 810 810 811 813 815 815 815 816 819 820 819 823 828 829 829 832 829 820 814 810 807 810 813 820 833 837 837 840 840 837 836 835 835 836 838 840
780 784 786 786 787 789 790 792 794 796 795 790 786 787 788 786 784 781 780 780 782 785 787 788 788 790 792 793 793 793 795 798 802 804 800 797 795 791 791 792 791 794 796 793 795 800 803 808 812 813 815 814 810 810 808 806 812 815 816 819 819 820 822 823 825 824 824 827 828 826 821 807 807 815 813 817 832 833 832 836 835 833 833 833 834 835 836 839
780 782 784 785 786 788 790 793 794 793 791 787 785 787 787 786 784 782 780 780 783 785 786 786 787 789 790 792 792 793 795 797 800 801 799 795 792 791 793 794 792 792 794 793 795 799 802 807 811 812 814 812 808 811 810 806 809 811 812 815 815 817 822 825 827 823 820 823 823 824 821 807 809 820 817 819 828 829 830 831 828 830 831 832 834 835 836 838
778 781 783 784 785 786 790 793 792 791 790 786 784 785 786 786 785 784 782 782 784 786 786 786 787 789 789 789 791 795 796 797 798 799 798 794 791 791 794 797 795 791 791 796 799 801 804 808 810 811 812 813 812 816 818 814 811 811 813 815 815 816 819 823 827 823 821 826 826 824 821 812 815 823 821 823 826 825 829 827 823 827 830 830 832 834 837 837
778 781 784 785 785 786 790 794 793 792 790 785 784 785 784 786 787 785 785 785 785 786 787 788 787 788 788 787 790 795 796 798 797 797 798 795 792 795 799 799 797 792 792 797 800 802 804 807 810 810 810 815 817 817 817 816 814 812 814 817 818 817 817 820 824 824 826 827 824 827 824 813 816 822 822 825 826 825 829 828 824 827 829 830 832 833 835 836
779 782 784 785 786 786 789 792 792 792 791 787 787 787 785 785 785 785 786 785 786 787 787 787 786 785 786 787 789 791 794 797 796 795 797 794 794 800 802 799 798 794 792 795 795 796 800 805 810 813 814 816 817 818 819 816 814 814 816 820 823 820 821 827 827 829 834 827 820 826 823 810 815 824 823 824 826 825 828 831 830 828 827 828 831 832 834 834
780 783 785 786 786 787 788 787 787 790 790 789 789 788 786 786 783 782 785 784 784 786 786 785 783 783 786 789 791 791 791 791 791 794 796 795 797 801 802 801 800 796 795 797 794 791 798 804 806 810 815 815 812 816 820 817 814 818 821 823 825 822 822 827 829 831 834 827 823 826 819 812 819 826 823 823 825 824 825 828 830 829 827 827 829 831 833 833
777 781 786 788 787 787 786 784 785 787 787 790 791 788 788 788 782 780 783 784 784 785 785 783 784 785 787 790 792 793 791 789 790 792 794 796 800 803 803 804 802 798 799 800 797 795 802 808 805 801 803 804 804 810 818 817 811 814 818 819 822 825 825 826 831 833 830 828 829 824 817 818 820 819 821 824 823 823 824 824 826 826 825 826 828 830 832 832
775 775 779 784 786 786 785 785 785 785 784 787 787 784 784 786 784 782 783 782 781 783 785 784 784 786 786 788 791 792 791 791 791 791 793 798 802 805 806 804 803 801 801 800 799 800 803 807 807 805 803 804 808 813 818 818 811 811 815 815 816 824 830 830 831 829 826 829 829 818 818 825 818 811 819 824 822 822 822 821 821 822 823 825 828 830 831 832
773 771 771 773 775 778 779 779 780 782 782 783 781 778 780 783 784 784 782 780 780 781 784 785 782 781 781 784 788 789 790 793 792 790 793 799 803 805 805 804 804 803 802 802 802 801 802 804 809 813 811 811 817 820 819 820 818 817 818 814 812 819 829 832 830 826 826 828 823 815 820 825 817 812 817 821 821 820 819 818 820 822 824 826 828 829 830 831
772 772 771 771 770 771 770 769 774 779 779 779 779 775 775 777 778 777 776 778 781 779 779 781 779 777 779 781 784 785 785 787 789 788 790 796 800 802 803 803 803 805 804 802 802 804 803 806 813 816 811 812 822 825 822 823 823 821 821 819 818 822 829 831 828 825 827 828 821 818 823 821 814 813 815 815 817 819 819 820 822 822 823 825 827 827 828 829
771 771 771 772 772 772 770 769 772 776 776 778 777 771 770 772 772 771 770 773 776 774 774 776 775 774 778 780 781 780 777 776 779 781 785 791 794 797 798 796 799 805 805 803 805 807 805 809 818 819 814 817 826 826 822 825 827 825 822 820 822 827 830 831 829 828 831 831 824 823 828 823 811 811 814 814 817 819 819 820 821 821 823 824 825 826 826 827
771 771 771 773 772 770 771 769 770 773 774 773 770 767 768 769 767 767 769 769 769 769 770 771 771 774 778 780 778 776 773 773 774 776 780 783 786 790 791 790 795 801 803 805 806 805 805 813 820 820 817 822 830 830 825 825 830 830 823 819 822 827 825 823 824 826 826 826 826 830 833 824 810 809 815 817 817 818 817 819 821 821 823 823 823 824 825 825
771 772 772 774 773 770 769 768 768 769 766 763 762 763 765 766 764 764 769 772 772 772 772 770 770 774 778 778 776 774 776 780 782 784 787 787 787 790 791 792 794 796 799 804 807 808 808 811 816 819 820 828 836 833 827 831 837 829 814 808 814 819 819 818 819 818 817 820 826 828 823 814 809 812 816 816 815 816 816 818 820 820 821 823 822 822 823 823
Wind_Speed
3 3 2 2 2 2 2 2 2 3 4 4 4 4 5 5 5 6 6 6 7 7 8 8 9 10 11 12 13 14 16 17 18 13 7 4 4 5 2 3 2 1 5 6 6 5 4 3 1 2 2 3 3 2 3 3 3 4 4 3 0 2 3 4 5 3 1 4 5 6 3 2 5 5 3 3 3 4 6 7 6 5 6 10 11 10 10 8
4 4 3 3 2 3 3 3 2 3 4 4 3 4 4 5 5 5 6 7 7 8 8 8 9 9 10 11 12 14 16 18 16 10 5 1 6 6 1 2 1 3 5 6 6 6 5 1 1 3 4 2 2 2 2 2 2 3 3 2 2 5 5 5 6 3 2 4 6 6 3 2 4 3 2 3 6 6 7 10 7 8 10 11 12 11 10 7
5 5 4 4 3 3 3 2 2 4 4 3 3 4 4 4 5 5 6 7 7 7 8 8 8 9 9 10 11 13 16 14 8 3 2 6 9 7 3 0 0 4 5 5 5 5 4 2 3 4 4 2 2 2 2 1 0 2 3 1 5 6 5 5 6 5 5 5 5 6 3 3 5 3 1 3 8 8 7 9 7 10 13 9 6 6 6 8
6 5 5 4 3 3 3 2 3 3 3 3 4 4 4 5 5 6 6 6 7 7 7 8 8 8 8 9 10 11 12 8 1 2 3 8 9 7 4 2 3 6 7 6 5 4 2 1 3 4 4 1 3 3 1 2 1 1 4 4 7 4 3 7 7 6 5 2 3 6 5 7 5 2 0 2 7 10 8 7 8 11 14 12 7 4 6 8
6 5 5 4 3 3 3 3 3 2 3 3 4 5 5 6 6 7 7 7 7 7 7 8 8 8 7 8 8 9 9 5 1 3 5 6 7 6 4 3 4 7 9 8 6 4 3 2 4 4 4 0 2 3 2 3 3 2 3 6 6 4 3 8 6 4 4 3 6 6 5 6 3 0 1 2 5 9 8 7 9 11 12 12 11 7 5 7
6 5 5 5 4 3 4 3 3 3 3 4 5 6 6 7 7 8 8 8 8 7 7 7 8 7 6 6 6 5 3 0 3 3 5 5 5 4 3 3 4 6 10 8 5 4 3 3 4 2 2 0 2 2 3 2 3 2 4 4 5 5 5 6 4 4 4 4 6 5 4 3 4 5 3 6 9 11 11 9 8 10 13 13 11 8 7 7
6 5 4 4 4 4 4 4 3 3 4 5 5 6 7 7 8 8 9 9 9 9 8 7 8 7 6 5 4 3 2 5 7 6 7 5 6 5 3 3 3 7 10 9 5 4 3 5 3 4 4 1 3 4 4 1 2 4 4 5 5 5 6 6 5 6 5 5 8 3 4 5 6 6 2 6 12 13 14 10 7 12 16 14 9 7 8 8
6 5 4 4 4 4 3 3 3 4 4 5 5 6 7 7 8 9 9 10 10 9 8 7 7 6 4 2 1 3 1 7 10 8 9 7 8 6 4 4 4 7 9 8 5 4 3 4 3 3 3 2 3 3 3 2 0 4 5 4 4 3 5 7 6 8 8 7 6 4 7 9 9 4 3 11 16 15 13 8 6 9 11 11 8 7 6 7
6 5 5 5 3 2 2 2 2 3 4 4 5 6 7 8 8 10 10 11 11 10 8 6 5 4 3 1 4 2 4 7 8 8 8 7 9 7 5 5 6 8 8 6 4 4 3 3 4 4 4 3 3 2 1 2 2 4 5 3 3 4 6 6 7 9 8 5 2 3 11 11 7 3 4 12 15 12 8 6 6 5 7 9 7 8 8 8
7 6 6 5 3 2 1 1 2 3 4 4 5 6 7 8 9 11 11 12 12 10 9 5 4 4 5 2 5 1 5 4 5 6 6 8 8 6 6 5 6 8 7 3 3 4 3 4 4 4 5 2 2 2 1 3 3 3 3 4 5 6 7 5 8 11 7 5 4 5 12 11 4 1 3 10 11 6 6 7 8 5 6 7 6 8 9 10
8 7 6 4 2 1 1 1 2 2 4 5 6 6 7 9 10 11 12 12 12 11 9 5 4 5 5 4 5 4 5 4 4 3 4 6 6 6 6 4 4 7 6 3 3 3 3 5 5 5 2 1 1 2 2 2 1 1 1 7 7 6 8 7 9 9 4 4 5 8 7 7 2 1 6 12 10 5 8 10 9 6 5 6 8 7 8 10
10 8 5 3 2 1 0 1 2 2 4 5 6 7 8 9 10 11 11 11 12 10 8 5 4 7 5 2 5 9 7 5 4 2 4 5 6 6 4 3 4 5 6 3 3 3 2 4 5 4 2 2 1 2 2 2 0 0 3 5 9 7 8 11 8 4 1 2 4 8 2 7 1 6 11 13 8 7 8 11 9 6 5 6 8 7 8 9
9 6 3 2 2 1 1 1 1 2 3 5 6 7 8 9 10 10 10 10 10 9 7 4 6 9 5 1 6 11 11 7 5 3 4 5 5 4 4 4 4 4 4 3 4 4 4 1 4 3 2 4 1 2 0 2 2 3 2 1 6 6 6 9 3 1 1 2 6 7 1 6 7 10 12 11 7 7 9 10 6 6 5 6 7 7 8 10
7 5 2 2 3 2 1 1 1 2 3 5 6 8 9 10 10 9 9 9 9 7 4 3 7 9 4 3 5 6 9 8 7 5 5 5 4 4 6 5 4 3 2 3 4 4 4 2 3 3 1 2 1 2 3 5 3 2 2 1 3 2 5 8 3 1 4 2 6 6 2 6 9 11 13 10 4 3 8 9 6 7 5 7 6 7 7 9
6 3 3 4 4 3 2 1 1 3 4 5 7 9 10 10 10 8 8 8 6 2 2 5 8 7 1 5 5 4 6 7 8 8 6 6 6 5 6 6 5 3 2 3 4 3 3 2 3 3 1 1 3 3 3 4 3 2 1 3 3 2 5 11 7 3 3 3 4 6 2 5 8 10 13 10 3 1 7 8 6 6 6 7 6 7 6 7
5 3 4 4 4 3 2 1 2 3 5 6 8 9 10 10 9 7 6 4 3 4 5 5 6 4 1 3 2 1 4 6 7 8 7 7 6 5 6 6 5 4 4 3 4 3 3 3 2 1 0 1 4 4 3 4 4 3 1 4 3 3 3 7 7 2 3 1 2 3 3 4 6 8 11 10 8 7 7 8 6 6 7 7 5 6 6 6
5 5 5 4 4 3 2 1 2 4 5 7 8 9 10 11 7 4 2 3 5 6 5 3 3 1 2 2 0 2 4 6 7 8 8 7 6 7 8 6 5 6 6 5 4 3 3 3 1 0 2 2 3 5 3 2 4 3 1 3 4 4 3 3 6 4 3 3 1 3 3 5 8 9 12 12 10 9 8 9 6 6 6 6 6 7 7 7
6 6 5 5 4 3 2 1 2 4 6 8 9 11 11 9 4 3 1 3 4 4 3 1 3 0 3 2 2 3 3 5 7 9 9 7 8 8 6 4 5 7 6 4 2 2 2 3 2 1 3 2 2 4 2 4 5 4 4 3 4 3 4 5 5 5 5 5 4 5 5 8 10 9 10 12 8 6 7 7 4 7 7 6 6 7 7 8
6 5 5 5 4 2 1 1 3 5 7 8 9 10 8 5 2 2 2 2 2 2 1 2 3 2 3 3 2 2 3 6 7 7 8 8 9 7 5 5 6 6 4 1 1 0 1 3 4 1 1 2 5 7 8 9 8 7 6 4 4 4 5 6 5 5 3 4 6 7 7 8 9 10 11 11 5 2 6 4 5 6 6 6 6 6 7 8
7 5 5 4 3 1 0 1 3 6 8 10 10 8 4 1 2 2 1 2 5 5 2 4 7 3 3 2 3 6 5 5 3 4 8 9 9 7 4 4 5 4 2 3 2 1 3 3 2 4 7 9 10 11 11 8 4 3 3 2 5 5 6 6 6 7 1 1 7 5 4 6 8 11 12 10 5 4 5 3 6 6 6 6 7 7 7 8
8 6 5 4 3 1 1 2 4 6 8 10 9 5 1 2 1 2 2 3 9 10 7 7 9 7 6 3 6 9 5 1 1 1 8 8 8 7 1 2 4 1 2 4 2 1 4 4 7 10 11 11 8 7 7 5 2 2 4 4 6 5 6 7 6 6 1 1 5 2 4 8 9 11 10 8 6 7 7 5 8 8 7 6 7 7 6 6
8 7 6 5 4 2 2 3 5 7 8 8 6 2 2 3 2 1 1 3 8 9 10 10 7 8 8 5 8 8 3 1 2 1 7 7 5 5 1 3 4 3 2 3 3 1 2 4 11 13 9 5 3 2 5 4 3 3 3 2 5 4 4 7 5 4 2 0 4 4 4 8 11 9 6 8 6 6 7 7 8 7 8 6 6 6 6 6
10 9 8 7 6 5 5 6 7 8 8 6 4 2 3 2 2 2 3 0 6 4 6 7 5 6 6 5 9 8 4 5 4 4 8 8 3 4 4 5 5 3 3 5 5 4 3 6 13 11 4 2 5 3 5 3 2 4 4 3 5 4 1 4 5 4 3 1 2 4 5 6 9 4 7 7 6 7 8 10 9 7 8 7 6 6 6 6
13 12 10 8 7 6 5 7 9 9 8 6 5 4 3 2 3 3 2 0 4 5 4 6 4 5 4 3 8 9 4 4 3 4 10 10 4 3 4 5 6 4 4 8 9 7 7 8 5 3 5 6 6 6 3 4 2 4 5 5 5 5 5 5 4 5 4 3 2 3 5 4 5 3 3 3 5 7 6 9 9 7 7 6 6 7 6 6
15 15 12 10 8 5 5 8 9 8 6 6 6 6 4 2 3 4 1 1 3 5 3 4 2 2 3 3 6 7 2 1 1 3 9 10 6 3 2 3 4 5 7 7 7 6 8 6 3 4 4 6 6 5 3 6 3 4 5 8 9 7 6 4 2 4 4 4 3 4 4 4 5 4 3 4 3 6 4 7 8 6 6 6 6 6 5 6
16 15 13 12 10 6 4 5 6 6 5 6 6 6 5 3 3 5 2 3 3 4 1 2 2 3 4 2 3 4 3 2 1 2 6 7 4 3 2 2 1 5 6 5 3 3 6 5 4 5 5 5 5 5 5 7 4 3 4 6 7 4 3 2 2 2 1 3 3 3 1 5 6 5 4 5 4 5 4 6 6 5 5 5 5 5 5 6
17 16 16 16 13 9 5 3 5 6 3 5 8 8 5 3 4 5 1 3 4 2 3 1 0 3 4 1 1 5 2 3 1 2 3 3 2 2 2 3 1 3 3 3 1 3 5 3 2 5 5 4 5 5 6 8 7 3 4 4 6 5 5 5 4 1 3 2 4 2 2 3 5 5 4 6 5 4 4 5 5 4 5 5 5 5 5 5
20 18 15 17 17 16 12 4 5 7 4 4 9 8 4 4 5 2 2 2 3 2 3 1 1 2 2 1 2 4 2 1 4 1 1 3 1 2 1 5 5 4 2 5 3 5 2 3 4 6 5 4 6 5 7 10 5 6 5 6 6 5 6 5 4 1 1 1 5 4 2 2 5 5 2 3 5 3 4 4 3 4 4 4 4 4 5 5
24 20 15 16 19 20 19 11 7 8 8 7 9 7 4 5 4 4 3 3 1 2 1 1 2 1 1 2 3 2 1 2 2 2 2 3 1 3 2 5 5 4 1 4 5 5 0 3 6 7 5 6 5 2 5 9 4 4 5 5 4 5 4 4 4 2 2 1 5 6 4 2 4 5 3 1 3 4 4 4 3 4 3 3 4 4 5 5
26 23 18 16 18 21 21 18 17 12 9 10 8 6 6 3 2 2 3 4 0 1 1 1 1 1 4 4 1 1 1 1 0 1 3 1 3 4 1 2 4 3 1 3 2 4 3 2 2 4 3 5 4 2 1 3 3 4 5 5 6 5 4 4 2 3 2 3 6 8 8 5 2 5 3 2 2 4 8 5 4 5 4 3 4 4 4 4
26 24 22 17 19 22 17 15 23 19 12 12 8 6 5 2 2 4 6 2 1 0 2 1 1 2 5 5 2 2 2 1 0 3 2 1 2 4 2 1 3 3 3 4 3 4 5 3 2 2 2 4 6 4 3 3 3 5 5 4 3 4 4 4 4 4 1 5 6 5 5 5 3 4 2 3 6 1 6 9 9 8 5 4 3 3 3 4
28 26 24 21 21 23 16 12 21 24 18 13 8 4 3 1 2 4 3 0 1 3 4 3 2 4 4 3 2 4 3 1 2 3 3 3 3 3 2 3 4 2 2 3 2 4 4 4 3 4 2 4 6 3 3 5 5 5 4 5 3 2 3 3 3 0 3 6 4 2 5 2 5 2 4 6 9 8 2 6 11 10 7 5 3 3 3 3
31 27 25 24 23 24 23 16 16 22 21 15 8 2 3 3 5 4 3 2 2 2 3 3 3 4 5 3 2 3 2 2 3 3 2 3 3 4 4 4 5 3 1 4 2 1 3 5 2 1 3 2 7 5 2 1 1 4 5 4 4 2 1 3 4 2 4 5 3 1 3 2 5 1 5 6 7 8 4 7 8 8 7 6 4 3 2 2
30 27 25 26 26 25 23 17 13 20 22 15 6 3 4 5 3 4 6 5 1 1 2 3 4 5 5 3 3 4 2 2 4 4 1 3 2 3 4 4 4 3 3 3 2 3 2 5 2 4 2 3 7 6 5 5 3 4 4 5 5 4 4 4 4 3 4 5 3 2 1 2 3 1 3 4 4 5 6 8 7 7 5 4 4 3 2 2
24 22 21 23 23 21 18 14 12 19 20 12 4 4 7 6 2 3 5 5 2 1 2 2 5 5 3 2 2 4 4 2 3 4 2 3 3 4 3 4 5 4 3 3 2 2 3 5 6 2 1 5 5 3 4 6 2 2 3 4 3 4 5 2 3 5 3 3 3 2 2 3 2 1 3 3 4 6 7 6 7 6 4 3 4 3 2 1
18 18 17 18 19 18 17 13 13 19 16 6 3 6 5 3 3 3 3 3 4 4 4 2 3 4 3 1 2 4 2 1 3 3 2 3 3 4 4 4 6 8 6 4 3 2 2 4 5 2 1 3 5 3 3 3 2 2 3 3 4 4 5 2 3 0 3 1 4 1 2 2 1 1 2 3 5 6 5 4 5 4 3 3 4 4 4 3
17 15 11 12 15 18 18 15 16 20 12 3 6 7 3 2 3 4 2 2 2 4 6 3 1 4 4 2 3 4 1 1 3 3 2 3 3 5 5 3 3 9 9 5 2 3 4 3 5 1 2 2 2 3 3 2 3 5 3 5 3 1 4 3 1 2 2 2 4 1 3 3 1 2 1 1 2 2 2 2 3 3 2 3 5 5 4 4
16 9 4 6 12 16 18 17 18 16 6 3 9 8 3 2 3 2 2 2 2 3 4 4 3 3 4 4 3 3 3 3 3 3 3 3 3 4 6 3 1 5 7 3 1 1 3 2 6 0 3 2 3 3 2 4 3 4 3 3 2 1 1 1 2 2 1 3 4 4 4 3 3 4 4 5 5 4 4 4 5 4 5 6 6 5 5 4
13 5 0 4 9 12 16 18 16 9 3 5 10 8 3 2 3 2 2 2 3 3 3 3 2 2 3 4 3 3 5 4 4 4 2 3 3 2 3 3 2 1 2 4 5 1 3 2 4 3 1 1 4 2 2 2 2 3 1 1 1 2 3 2 2 3 2 3 4 5 5 3 4 5 6 8 8 8 7 6 5 7 8 7 6 6 6 5
8 3 1 4 8 12 14 13 8 4 3 5 6 4 1 1 3 3 2 1 1 1 2 3 3 3 3 3 3 3 4 5 5 4 3 4 3 2 1 1 3 2 2 4 4 1 2 3 3 3 2 0 1 2 5 5 3 2 1 0 1 1 1 1 1 2 3 3 3 4 6 5 4 3 6 9 8 9 9 7 7 8 8 7 7 6 6 5
3 2 1 3 10 14 12 7 3 3 3 3 2 2 1 0 1 3 2 2 1 0 1 3 4 4 3 3 3 2 2 3 4 3 3 3 2 2 1 0 3 4 2 4 3 1 2 2 2 2 1 2 3 3 4 6 5 5 4 3 4 3 1 2 4 1 2 3 3 4 6 5 3 2 5 8 9 8 8 8 8 8 8 7 7 6 5 5
2 2 2 6 15 18 10 3 2 2 2 3 2 2 2 1 1 2 2 2 2 1 1 2 3 3 3 3 2 2 2 2 3 3 3 3 3 2 0 2 0 3 4 3 2 1 2 3 2 3 3 5 4 2 1 3 5 5 2 2 3 3 4 3 6 3 1 1 1 2 3 4 3 2 3 6 7 7 8 8 8 7 7 7 6 4 4 4
2 3 2 9 19 16 6 2 2 1 3 2 1 1 2 2 1 1 1 1 1 2 1 1 3 4 4 3 3 4 4 2 3 4 2 3 3 1 2 4 2 2 4 2 2 1 2 3 2 3 3 2 4 4 4 3 4 2 1 1 3 2 3 4 4 3 1 2 1 1 3 3 2 1 3 4 4 4 5 6 5 5 5 5 5 4 4 5
3 3 2 8 17 11 3 3 3 3 4 2 2 3 1 1 3 2 1 1 1 2 2 2 3 4 4 3 4 5 5 3 3 4 3 3 2 0 3 5 3 1 2 2 3 3 2 2 3 1 3 4 4 3 4 4 1 2 2 1 2 3 5 3 1 2 1 4 5 5 6 4 1 1 2 2 4 4 5 5 4 4 5 5 5 4 5 5
3 2 2 6 12 7 2 2 3 3 5 4 4 5 2 1 3 5 5 4 2 2 2 2 2 3 3 3 3 4 6 6 4 3 4 4 2 2 3 5 3 2 2 2 1 3 3 3 4 4 5 7 5 3 2 2 1 1 1 2 2 4 6 4 1 2 2 3 4 5 6 3 3 1 2 3 4 5 6 5 4 5 6 6 5 5 5 5
3 1 1 3 5 4 2 1 2 3 4 5 4 4 6 6 3 4 6 6 5 5 3 2 1 2 2 4 4 5 7 7 4 3 4 4 2 2 2 3 2 2 2 1 3 3 3 1 3 6 8 8 5 5 4 3 3 2 2 3 4 4 5 4 3 3 3 1 3 6 5 2 5 5 6 6 6 6 6 6 6 6 7 7 5 5 5 5
2 2 4 4 3 5 4 3 4 4 3 5 4 4 8 10 5 3 6 7 6 7 5 3 3 4 5 6 6 6 7 7 6 5 4 3 2 2 2 1 2 2 1 2 3 3 4 2 3 5 6 5 4 5 3 3 4 5 4 5 7 5 6 7 4 5 4 3 7 9 5 4 9 11 7 6 7 6 6 8 8 6 6 5 4 5 5 5
1 1 2 2 1 5 7 8 9 9 7 7 5 4 8 11 9 6 7 5 5 7 6 4 7 12 11 8 7 6 6 6 7 6 4 3 3 1 2 1 1 3 3 2 2 3 5 3 3 4 3 3 5 4 4 4 3 5 6 9 11 8 6 7 7 8 7 6 10 9 5 7 11 11 6 6 8 8 8 8 5 2 3 4 5 6 6 6
1 0 2 1 1 3 5 8 12 13 13 10 6 6 9 11 12 10 6 4 4 8 9 9 11 14 13 11 9 8 8 8 7 5 4 4 4 4 2 1 2 1 3 3 1 2 3 2 1 3 2 2 2 3 4 4 3 5 7 11 11 8 6 8 9 10 8 8 12 11 11 12 12 9 7 6 6 6 5 3 2 4 5 6 6 7 7 6
2 1 1 1 1 1 1 4 9 11 11 10 8 9 9 9 12 10 5 6 7 8 10 13 13 10 10 12 12 12 11 10 9 8 7 6 5 4 4 3 3 2 2 2 1 1 1 1 1 3 0 4 3 2 4 2 3 5 9 11 9 6 6 8 9 7 6 9 13 12 11 13 12 8 5 4 1 3 3 4 5 5 6 7 7 6 6 6
2 1 2 2 1 2 2 3 6 7 8 9 9 9 9 10 11 8 3 4 6 6 7 13 14 8 7 11 14 14 10 7 8 8 7 7 6 4 3 4 6 6 3 2 2 0 1 2 1 5 2 4 4 2 2 3 4 5 12 15 11 7 8 9 7 7 9 11 11 8 7 10 11 7 3 2 3 5 6 7 6 6 6 7 7 7 6 6
2 1 1 3 0 2 3 3 5 7 7 8 9 9 9 9 7 6 4 1 1 2 3 7 10 7 6 11 13 10 6 7 6 5 5 5 4 5 3 3 5 6 6 4 2 1 3 4 1 3 3 4 4 1 1 6 5 7 11 11 11 11 11 9 7 9 12 9 7 7 9 10 9 6 3 5 6 7 7 6 6 6 6 6 7 7 7 7
Wind_Direction
308 297 284 271 264 269 268 275 280 283 288 296 300 301 306 308 309 316 318 320 323 325 331 334 337 337 334 336 335 333 331 328 327 320 305 291 219 196 280 330 338 171 164 169 166 152 118 87 94 72 48 36 15 356 346 344 60 51 77 98 277 200 210 194 189 186 161 277 282 310 330 173 286 308 318 324 352 323 308 295 272 279 266 241 252 277 302 292
319 315 307 294 272 272 271 272 286 288 293 301 307 305 305 310 315 322 321 322 325 327 331 333 336 334 333 336 335 335 331 328 328 322 325 313 161 153 151 337 333 171 168 178 184 165 127 106 196 88 48 29 337 2 357 328 73 88 116 123 225 204 216 199 196 208 184 252 272 290 275 215 266 287 344 315 298 321 317 293 293 297 279 264 264 273 284 247
317 317 309 302 290 287 281 272 281 287 297 314 319 313 312 319 320 321 325 328 328 331 332 332 334 332 334 335 337 338 332 331 334 328 40 109 126 121 123 325 210 171 181 186 186 177 149 167 176 126 57 23 300 23 45 331 72 153 123 142 239 220 235 246 234 232 218 230 275 290 287 293 273 243 326 320 300 303 289 279 290 295 289 287 262 247 254 216
310 309 307 305 300 297 296 288 287 299 315 324 326 327 323 321 323 320 323 330 331 334 333 331 332 332 333 335 339 337 337 348 334 227 127 120 118 114 130 178 176 174 188 185 175 187 199 209 166 127 81 14 315 23 125 253 229 174 136 182 232 205 232 265 257 251 243 225 288 295 317 308 279 197 254 351 320 299 277 256 245 265 283 293 286 240 225 210
310 308 311 308 309 310 304 298 306 330 327 324 331 333 332 329 333 327 321 325 327 329 331 329 326 329 330 333 338 337 355 29 230 216 162 138 131 135 147 169 175 186 190 185 182 187 198 146 105 75 67 41 328 34 245 235 140 169 212 209 223 172 211 266 263 275 306 341 323 308 303 292 292 9 193 182 274 275 274 257 240 249 265 280 292 290 242 220
316 315 317 315 321 307 301 317 335 341 328 333 339 340 340 337 337 330 322 320 321 321 323 320 317 320 319 321 325 334 26 75 253 199 182 170 163 172 174 182 184 196 194 192 194 177 165 90 81 92 81 57 207 190 246 257 144 213 274 246 240 213 223 270 284 304 331 331 300 287 285 302 332 310 235 207 239 253 266 264 256 265 269 277 291 295 279 258
311 315 313 314 317 305 315 339 343 342 340 345 345 344 341 336 334 326 322 320 317 318 318 315 311 306 306 303 301 349 83 242 259 228 228 228 213 211 194 215 213 201 195 193 188 156 119 81 104 152 105 23 213 211 245 298 169 203 261 278 263 232 229 258 282 293 289 257 258 272 329 314 294 296 289 256 259 262 269 270 265 270 281 292 294 285 286 288
308 308 298 299 305 311 330 338 341 346 344 347 346 343 334 329 326 319 317 315 314 314 316 314 305 299 299 266 225 358 333 254 260 248 251 243 222 221 218 233 223 205 193 194 183 148 128 122 176 164 113 237 189 210 269 348 353 195 226 269 280 258 248 264 273 272 269 261 263 305 305 276 264 284 308 273 272 272 277 289 281 279 295 299 300 317 331 324
309 303 294 291 293 308 317 323 338 343 344 350 345 340 334 329 325 320 316 314 313 312 315 315 295 275 248 187 97 10 272 252 259 255 255 236 219 221 229 227 215 205 187 193 184 142 155 176 202 183 174 210 179 221 316 37 281 210 202 243 276 283 281 285 278 269 274 267 227 300 287 277 276 289 275 264 261 270 299 312 293 299 303 298 322 4 22 19
304 302 296 285 272 278 290 318 338 342 350 353 347 345 338 332 326 321 317 314 313 310 315 310 276 237 213 173 100 215 261 258 266 258 244 227 218 219 222 213 206 204 183 175 183 161 173 195 194 153 157 157 171 236 85 131 218 217 222 280 278 287 291 274 269 277 293 278 207 224 270 281 305 303 274 266 255 280 339 308 294 314 306 321 14 38 41 40
299 299 291 279 254 251 278 344 347 351 356 355 349 345 336 332 326 320 318 314 312 313 315 303 254 218 193 158 140 212 258 262 267 256 221 215 204 198 199 193 197 203 194 154 158 180 185 196 161 116 144 172 172 287 291 193 187 188 336 319 303 318 308 274 267 276 295 287 202 174 255 295 351 188 241 257 265 326 341 299 304 340 346 21 59 62 49 44
290 287 280 268 237 221 166 32 7 356 354 355 347 341 335 329 324 320 319 314 313 314 310 295 234 197 168 146 206 230 250 255 256 220 181 171 161 178 185 194 201 205 211 170 119 137 153 193 139 120 231 169 122 316 278 238 341 27 50 332 302 345 322 281 275 264 182 260 177 141 310 316 274 221 242 256 280 339 328 296 312 2 24 59 78 67 52 42
276 272 265 231 190 174 149 98 19 353 351 353 342 338 333 326 324 322 320 316 314 312 303 276 211 184 162 225 235 234 245 248 242 208 172 155 151 194 205 205 203 204 215 169 119 101 95 174 139 144 189 121 215 275 69 357 346 314 23 325 299 353 318 281 283 43 341 235 165 137 296 288 259 249 258 270 299 334 313 295 334 25 35 68 76 65 56 42
263 252 216 171 152 151 136 92 16 355 350 344 337 333 327 327 325 322 326 323 316 307 287 218 187 173 164 251 253 248 244 236 231 222 207 197 190 207 205 196 192 189 191 146 124 90 74 82 104 100 115 119 235 303 8 357 358 319 322 333 327 331 280 290 293 22 329 275 152 144 208 256 269 277 278 282 298 336 296 298 12 38 44 71 72 65 60 46
252 232 185 164 153 149 128 83 13 354 344 335 332 327 324 327 325 326 335 332 330 321 187 165 169 158 137 271 268 268 237 221 224 225 219 204 188 193 196 188 181 160 142 135 121 92 80 77 79 91 275 332 49 43 0 345 357 13 300 306 327 204 263 305 296 197 236 289 117 131 211 261 271 276 280 289 312 303 284 304 27 52 62 73 67 63 63 48
229 199 173 166 160 150 136 77 6 341 334 329 326 322 321 323 319 322 341 1 54 96 120 145 164 150 317 266 252 243 216 209 215 212 198 187 187 179 158 152 149 134 125 130 132 119 92 68 60 120 179 3 72 81 37 2 337 345 190 250 266 212 254 313 304 219 169 298 72 151 219 273 277 273 282 295 303 303 301 320 20 67 73 71 66 59 57 44
204 188 177 167 168 163 144 64 353 329 325 321 319 319 318 318 306 296 7 79 100 97 97 127 153 127 282 235 242 261 213 200 195 185 179 181 185 166 139 124 118 120 107 100 120 110 57 48 53 251 45 52 107 99 56 336 297 311 272 229 244 223 220 285 297 315 36 64 341 257 223 252 268 277 290 292 298 320 323 324 9 78 83 73 71 61 55 46
192 186 175 163 166 160 141 41 344 325 321 319 322 320 316 316 291 238 168 122 107 80 61 78 117 101 271 225 208 234 188 180 176 174 179 171 165 156 128 111 118 112 84 57 65 64 24 18 58 27 14 42 126 117 161 231 227 247 249 234 264 256 238 258 271 296 351 14 327 298 278 270 276 281 284 284 306 338 305 308 34 90 88 76 71 64 58 52
188 180 167 158 156 148 140 5 345 332 323 319 324 321 315 323 296 226 197 149 129 127 207 214 166 160 253 245 207 174 135 152 158 170 173 157 158 153 107 99 105 98 92 56 332 19 99 47 57 127 237 205 194 179 196 218 211 224 237 213 237 259 261 263 262 270 334 353 298 281 275 274 285 291 285 289 322 316 273 313 68 94 85 75 69 63 58 55
193 186 175 166 157 145 33 337 333 333 328 323 329 331 319 356 8 303 249 180 210 214 202 205 199 212 278 272 151 146 139 138 144 168 165 159 156 143 95 70 63 54 115 156 215 271 108 115 174 207 216 212 212 208 210 226 223 227 256 244 243 253 270 268 265 277 334 343 272 271 285 278 279 284 285 300 338 338 312 40 92 92 81 75 70 64 57 56
198 196 189 184 190 212 299 323 320 319 322 323 328 334 220 165 126 289 281 264 248 237 242 232 214 238 259 213 158 157 141 118 327 145 159 163 148 144 151 58 82 27 225 158 142 30 93 152 220 222 218 219 221 210 211 241 261 246 248 265 274 257 259 258 253 283 339 158 267 329 344 295 283 284 297 331 5 356 350 83 106 93 86 75 68 65 59 58
209 217 209 202 211 230 260 287 294 297 307 312 312 280 197 194 190 216 160 293 276 242 236 245 234 250 253 232 208 179 135 213 267 245 170 154 139 171 189 94 136 202 202 129 99 73 116 206 238 232 221 239 277 181 170 209 209 212 219 230 266 254 270 280 274 304 353 197 278 332 341 294 284 292 348 17 41 29 20 71 86 86 89 71 64 62 56 57
217 226 219 212 216 225 249 272 275 283 290 283 265 210 198 202 186 166 126 262 291 260 222 232 222 234 242 240 219 187 177 210 214 240 183 150 139 189 152 136 173 170 150 171 156 152 185 235 244 234 194 193 270 239 157 163 209 217 210 202 249 242 216 276 287 312 328 318 289 313 319 291 283 307 43 37 62 66 49 67 66 66 80 73 68 60 50 55
222 228 223 219 225 235 263 281 277 275 272 258 237 211 185 178 174 169 132 66 284 275 234 214 197 205 212 208 190 176 194 206 173 217 180 157 144 154 163 171 170 169 194 197 181 179 219 239 235 176 150 172 234 266 171 156 246 248 218 211 237 243 216 225 287 323 335 352 8 358 332 303 288 310 69 61 71 69 55 69 67 56 69 72 68 59 47 50
227 231 225 219 222 240 275 285 276 258 238 227 222 206 173 159 179 169 129 23 288 291 273 210 186 194 183 146 167 168 161 207 197 208 176 166 153 135 191 173 151 206 215 192 185 211 244 241 127 114 147 160 196 255 215 173 232 289 237 215 225 240 240 233 336 4 15 336 335 34 359 295 311 324 180 174 76 61 44 59 65 52 52 57 57 51 41 43
227 231 230 227 222 223 252 274 255 217 205 222 213 195 181 172 186 177 115 38 284 272 244 181 173 177 167 123 157 134 88 267 256 130 155 170 171 133 174 182 134 217 201 170 174 221 251 237 152 172 179 154 182 245 234 174 153 286 248 208 206 203 196 175 96 62 130 250 285 55 109 260 313 318 219 174 109 83 67 55 61 53 46 52 53 48 43 40
226 233 235 235 227 207 203 240 214 181 185 229 202 188 191 177 192 199 109 13 286 215 137 188 8 144 161 183 165 129 151 244 101 81 127 151 184 95 145 211 176 206 182 122 154 232 226 219 155 187 190 181 207 245 224 164 132 239 237 140 131 131 146 152 119 149 219 247 311 354 157 243 291 278 228 156 130 101 82 67 61 59 53 55 54 50 48 40
229 238 240 235 229 216 211 217 198 197 218 206 180 181 186 184 193 165 88 294 282 109 112 256 89 99 127 53 63 115 193 217 112 222 341 106 139 68 141 218 178 197 189 121 201 255 207 201 195 170 160 188 214 229 192 155 144 238 210 132 120 130 149 146 122 180 256 6 307 290 163 237 261 268 293 150 169 172 132 124 100 84 78 73 67 53 43 38
228 238 243 237 232 225 220 224 217 216 220 179 158 162 157 181 189 86 86 225 268 73 76 79 112 60 43 66 41 73 74 17 122 239 0 81 33 62 164 211 157 181 256 127 205 257 320 226 200 147 147 200 212 240 178 161 181 218 159 108 59 68 90 93 115 132 32 348 254 238 187 202 266 281 305 122 207 209 165 143 135 125 115 95 74 56 42 36
225 232 242 239 230 220 215 221 225 219 203 177 152 140 145 153 120 115 211 225 69 78 115 94 162 108 92 109 25 355 114 25 75 39 32 58 4 29 123 195 98 121 324 15 258 258 317 301 194 144 178 194 152 80 115 158 158 123 97 57 23 21 37 41 69 89 59 275 252 224 195 175 273 282 234 175 257 187 152 145 161 152 129 104 76 57 49 39
227 232 240 237 226 217 206 215 220 211 194 177 153 134 151 108 81 189 219 218 61 170 136 127 187 126 130 141 161 186 131 68 86 91 82 98 37 33 48 76 69 69 4 342 314 307 332 331 254 252 211 139 104 77 26 19 62 91 83 64 33 340 8 20 355 41 114 253 269 232 172 150 220 267 298 319 325 332 157 167 169 158 138 117 90 73 61 44
231 236 241 238 231 221 209 219 219 207 196 179 158 136 137 145 222 206 215 127 162 194 167 175 180 158 166 150 162 180 148 156 192 130 135 147 151 178 181 175 161 77 348 258 273 338 314 250 264 306 267 142 109 87 11 5 35 80 96 86 71 325 347 349 302 323 218 253 274 162 121 137 233 242 5 344 337 332 300 155 151 147 138 132 123 108 79 52
233 236 237 233 229 219 213 223 219 204 195 178 166 140 116 194 225 182 175 202 198 178 140 133 139 146 149 141 196 189 141 178 191 164 147 127 149 224 245 207 168 135 187 203 208 349 297 293 311 333 286 180 139 150 202 268 122 137 145 127 121 149 219 265 265 275 266 272 289 162 125 278 266 318 5 348 337 333 15 93 116 125 128 136 142 132 93 66
229 229 225 220 217 213 213 218 211 196 186 169 159 150 156 210 221 152 191 212 191 102 96 118 127 128 140 169 213 174 148 218 180 149 123 109 137 238 255 234 184 139 124 150 180 180 207 300 246 179 245 190 168 182 165 142 151 175 159 137 147 161 172 221 229 222 261 284 301 292 214 211 231 307 339 346 353 8 49 75 87 94 109 127 125 120 112 85
218 214 211 208 206 206 206 205 198 187 177 163 164 189 193 209 181 151 201 204 180 117 78 91 115 125 166 254 256 188 173 220 169 135 141 158 176 202 214 218 189 146 122 151 224 176 166 257 254 233 229 159 174 212 134 114 107 211 132 114 167 186 164 196 214 183 193 302 299 252 225 208 178 272 324 359 29 39 48 62 83 95 105 114 125 155 173 147
196 191 194 197 195 194 191 186 182 179 174 162 200 212 213 206 163 179 203 173 170 150 123 78 82 128 205 274 247 219 182 139 147 140 197 200 201 207 213 226 187 169 165 164 207 184 144 261 276 342 28 156 170 191 132 129 188 164 124 173 215 181 133 125 268 203 96 274 273 212 219 292 346 272 311 22 38 43 43 63 102 124 122 129 173 203 204 190
172 172 180 187 189 187 185 182 178 177 174 170 216 223 235 212 184 187 197 152 149 133 133 155 156 167 194 205 215 215 170 122 151 154 214 221 223 206 208 243 184 184 193 173 201 203 152 254 282 113 141 231 176 130 65 45 139 129 163 213 207 122 87 96 229 331 29 247 273 271 211 239 241 239 271 63 71 69 85 139 151 161 166 185 207 219 220 204
152 151 161 183 188 184 181 181 178 175 168 190 219 228 216 214 230 186 161 142 104 98 134 182 201 176 174 185 211 194 164 180 177 173 194 220 241 195 179 208 180 200 214 164 162 257 122 219 288 329 156 281 13 85 46 355 75 123 189 202 115 136 267 64 161 225 242 241 277 292 263 238 207 203 195 192 186 164 176 196 191 191 202 210 216 224 226 209
139 126 146 191 187 184 180 179 176 173 177 201 217 228 198 204 267 263 180 130 89 106 159 200 192 153 167 175 184 178 173 181 174 178 183 192 230 199 148 177 165 219 261 149 165 254 90 150 278 314 204 319 25 79 190 261 23 57 47 8 53 164 180 175 176 174 184 226 266 286 289 270 232 202 182 187 183 171 182 198 200 203 208 209 206 212 215 201
133 116 226 191 180 179 177 173 170 184 210 206 210 212 167 208 269 275 245 154 74 113 186 200 174 168 188 184 177 176 180 183 176 188 210 191 209 233 157 160 153 130 29 99 139 125 81 140 240 302 330 69 144 203 188 179 159 106 94 214 255 210 167 255 232 139 149 194 235 269 274 265 252 210 170 174 177 179 182 181 196 211 210 208 212 212 205 188
115 120 177 171 163 162 161 166 190 200 217 234 198 143 120 159 272 287 265 153 130 332 132 158 178 179 178 184 192 160 144 179 181 192 232 219 225 234 205 178 168 162 89 82 112 149 140 149 195 254 303 183 219 240 180 166 156 149 168 190 189 172 140 265 262 205 150 188 196 229 261 267 260 222 163 163 174 186 185 177 191 210 208 213 225 216 195 183
100 120 150 154 154 152 149 177 225 193 220 237 190 148 141 122 146 287 312 97 142 190 68 123 180 176 176 184 178 137 131 180 192 191 227 234 230 210 294 350 193 143 113 113 168 175 124 110 164 224 219 208 238 291 196 168 141 132 157 169 158 148 133 184 237 234 183 231 161 171 249 269 265 224 169 171 181 186 189 182 187 207 210 215 223 207 183 187
113 120 121 154 157 153 145 209 238 229 233 245 55 151 145 136 187 250 344 37 170 158 123 183 180 188 209 188 155 165 164 174 203 201 232 255 230 222 344 336 317 103 99 132 187 139 96 103 174 256 301 314 311 333 353 27 99 120 288 139 144 164 151 170 204 174 148 242 233 261 255 250 257 203 148 175 195 198 208 200 193 215 228 232 229 201 179 184
119 107 71 163 170 168 162 198 199 221 235 277 316 249 196 149 193 199 205 229 207 153 176 209 184 200 219 164 148 180 171 173 225 216 210 227 230 312 7 344 305 162 133 194 185 173 184 148 143 204 308 320 325 344 350 346 60 176 244 190 137 126 114 101 117 120 147 228 216 236 251 244 282 33 94 174 199 218 233 218 201 220 239 245 239 211 187 186
117 82 36 174 186 194 220 192 165 196 220 226 242 239 236 237 213 203 210 224 216 177 191 244 184 179 191 143 142 197 193 198 220 205 193 215 271 349 10 350 321 190 207 265 186 154 174 170 147 165 220 243 242 218 235 263 227 197 225 195 163 137 131 116 104 152 206 217 201 226 242 265 349 13 238 255 240 234 254 260 245 241 242 241 231 207 192 187
134 136 106 160 196 219 244 214 157 189 201 195 220 227 212 225 234 187 192 219 234 213 220 269 133 122 169 170 175 216 219 218 217 191 184 196 240 298 321 350 5 159 162 63 54 84 115 185 190 182 212 231 212 204 210 159 152 209 244 210 199 179 146 124 120 176 204 189 228 234 218 249 295 251 218 239 254 244 249 260 257 247 244 239 218 196 189 183
140 173 167 158 188 212 220 221 206 212 186 168 194 206 200 213 229 189 189 207 214 206 222 249 184 190 207 184 189 220 217 213 214 202 182 167 190 285 307 36 54 20 39 67 44 74 110 222 228 184 221 233 154 174 200 135 161 211 236 245 235 204 144 138 171 201 173 176 247 244 188 177 251 251 218 202 229 244 250 256 257 246 234 220 188 170 173 181
169 157 189 169 170 198 205 204 202 208 198 183 194 207 200 205 207 201 199 198 190 193 207 227 212 217 216 190 192 216 203 203 212 198 169 147 157 163 354 3 344 349 22 47 13 86 123 227 233 154 227 246 121 144 182 152 177 212 220 243 250 235 169 160 204 214 181 198 249 254 214 208 242 256 238 201 211 228 245 259 269 238 181 163 152 156 169 184
152 174 266 335 13 209 208 191 187 200 205 197 204 220 210 207 208 207 190 167 196 202 199 214 224 220 216 204 203 212 201 199 209 199 169 161 167 157 137 250 275 357 64 77 4 80 124 215 204 135 225 275 110 172 201 183 198 229 232 235 241 239 200 185 219 226 205 221 248 254 253 253 255 252 245 240 228 218 226 228 137 145 162 160 161 169 180 196
136 166 209 32 344 249 258 184 181 198 208 200 211 223 216 212 215 212 187 177 205 208 197 214 225 214 204 207 211 218 214 199 202 203 177 167 185 187 183 195 176 112 75 106 179 341 89 175 144 104 103 303 311 215 214 198 191 241 260 253 242 236 222 219 228 227 218 234 244 249 257 264 264 247 235 262 248 149 160 174 175 184 180 168 172 184 194 210
124 25 101 103 236 201 186 190 178 192 209 205 213 218 210 214 210 197 196 207 208 204 193 210 220 213 198 209 215 222 218 190 188 190 164 163 182 181 186 191 159 146 149 158 166 31 97 160 45 75 101 288 300 213 222 19 30 293 274 262 250 238 233 233 221 205 214 226 236 244 249 255 260 254 244 247 192 177 189 191 188 197 192 177 180 194 205 214
167 309 121 118 242 219 188 186 179 195 211 208 214 216 210 217 201 172 198 249 141 199 207 203 210 207 199 214 222 220 184 141 138 125 107 109 101 89 98 125 131 146 160 153 139 88 124 138 123 102 139 276 299 199 140 43 23 287 266 248 238 237 237 242 240 227 220 210 207 223 230 238 251 260 261 243 221 211 206 191 181 194 200 196 195 198 208 215